Home   Weather   Germany   Meissen   Past weeks
Flag for Germany

Past Weather in Meissen, Saxony, Germany — Yesterday and Last 2 Weeks

Currently: 64 °F. Clear. (Weather station: Dresden-Klotzsche, Germany). See more current weather

Past Weather in Meissen — Graph

°F

Meissen Temperature Yesterday

Maximum temperature yesterday: 75 °F (at 3:50 pm)
Minimum temperature yesterday: 55 °F (at 4:50 am)
Average temperature yesterday: 67 °F

High & Low Weather Summary for the Past Weeks

 TemperatureHumidityPressure
High82 °F (Jun 18, 3:50 pm)100% (Jun 19, 6:50 am)30.24 "Hg (Jun 19, 6:50 am)
Low46 °F (Jun 12, 4:20 am)38% (Jun 16, 1:20 pm)29.65 "Hg (Jun 10, 7:20 pm)
Average63 °F67%29.95 "Hg
* Reported Jun 9 10:20 pm — Jun 24 10:50 pm, Meissen. Weather by CustomWeather, © 2024

Note: Actual official high and low records may vary slightly from our data, if they occured in-between our weather recording intervals... More about our weather records

Meissen Weather History for the Previous 24 Hours

Scroll right to see more
 ConditionsComfort  
Time TempWeatherWind HumidityBarometerVisibility
10:50 pm
Mon, Jun 24
64 °FClear.5 mph68%30.09 "Hg10 mi
10:20 pm66 °FClear.3 mph64%30.09 "Hg10 mi
9:50 pm68 °FClear.3 mph60%30.09 "Hg10 mi
9:20 pm70 °FSunny.3 mph53%30.09 "Hg10 mi
8:50 pm72 °FSunny.5 mph50%30.09 "Hg10 mi
8:20 pm72 °FSunny.6 mph50%30.09 "Hg10 mi
7:50 pm73 °FSunny.8 mph47%30.09 "Hg10 mi
7:20 pm73 °FSunny.6 mph47%30.09 "Hg10 mi
6:50 pm75 °FSunny.5 mph47%30.09 "Hg10 mi
6:20 pm73 °FPassing clouds.7 mph53%30.09 "HgN/A
5:50 pm73 °FSunny.2 mph50%30.09 "Hg10 mi
5:20 pm75 °FPassing clouds.7 mph47%30.09 "HgN/A
4:50 pm73 °FSunny.5 mph47%30.09 "Hg10 mi
4:20 pm75 °FPassing clouds.6 mph44%30.09 "HgN/A
3:50 pm75 °FSunny.3 mph44%30.09 "Hg10 mi
3:20 pm73 °FPassing clouds.5 mph47%30.12 "HgN/A
2:20 pm73 °FPassing clouds.6 mph47%30.12 "HgN/A
1:50 pm72 °FScattered clouds.1 mph50%30.12 "HgN/A
1:20 pm73 °FPassing clouds.5 mph47%30.12 "HgN/A
12:50 pm70 °FPassing clouds.5 mph57%30.15 "HgN/A
12:20 pm72 °FPassing clouds.3 mph53%30.15 "HgN/A
11:50 am72 °FPassing clouds.5 mph53%30.15 "HgN/A
11:20 am70 °FPartly sunny.5 mph53%30.15 "HgN/A
10:50 am70 °FScattered clouds.7 mph57%30.15 "HgN/A
10:20 am68 °FScattered clouds.2 mph60%30.15 "HgN/A
9:50 am68 °FScattered clouds.5 mph60%30.15 "HgN/A
9:20 am68 °FScattered clouds.2 mph64%30.15 "HgN/A
8:50 am68 °FPassing clouds.3 mph64%30.15 "HgN/A
8:20 am64 °FPassing clouds.2 mph73%30.15 "HgN/A
7:50 am63 °FScattered clouds.2 mph77%30.15 "HgN/A
7:20 am61 °FScattered clouds.2 mph77%30.15 "HgN/A
6:50 am59 °FPassing clouds.2 mph82%30.15 "HgN/A
6:20 am57 °FSunny.1 mph88%30.15 "Hg10 mi
5:50 am55 °FSunny.2 mph94%30.12 "Hg10 mi
5:20 am55 °FSunny.2 mph94%30.12 "Hg10 mi
4:50 am55 °FSunny.3 mph88%30.12 "Hg10 mi
4:20 am57 °FClear.2 mph82%30.12 "Hg10 mi
3:50 am57 °FClear.2 mph82%30.12 "Hg10 mi
3:20 am59 °FClear.1 mph77%30.12 "Hg10 mi
2:50 am59 °FClear.2 mph77%30.12 "Hg10 mi
2:20 am59 °FClear.3 mph82%30.12 "Hg10 mi
1:50 am59 °FClear.1 mph82%30.12 "Hg10 mi
1:20 am61 °FClear.1 mph77%30.12 "Hg10 mi
Weather by CustomWeather, © 2024

See weather overview